Orbital Elements at Epoch 2459200.5 (2020-Dec-17.0) TDB
Reference: JPL 22 (heliocentric ecliptic J2000)
Element | Value | Uncertainty (1-sigma) | Units |
e | .2017829641669807 | 5.9818e-08 | |
a | 2.64445673394781 | 1.7127e-08 | au |
q | 2.110850415560488 | 1.655e-07 | au |
i | 13.95817323163465 | 5.7364e-06 | deg |
node | 302.2718422977719 | 1.6164e-05 | deg |
peri | 13.94091483301503 | 2.0706e-05 | deg |
M | 26.14591599148728 | 9.7516e-06 | deg |
tp | 2459086.421320247355 (2020-Aug-24.92132025) | 4.2783e-05 | TDB |
period | 1570.735740309247 4.30 | 1.5259e-05 4.178e-08 | d yr |
n | .2291919581132871 | 2.2265e-09 | deg/d |
Q | 3.178063052335131 | 2.0582e-08 | au |
|
| | Orbit Determination Parameters
Additional Information
|